#timestamp,LO_Frequency,Hit,StdDev 
1459054815.5,286046996.5,N
1459054835.3,286046999.2,N
1459054855.2,286046997.6,N
1459054875.9,286046996.5,N
1459054895.7,286046997.4,N
1459054915.6,286046995.8,N
1459054935.4,286046996.0,N
1459054955.2,286046996.0,N
1459054975.1,286046994.2,N
1459054976.0,286046994.2,N
1459054995.8,286046992.3,N
1459055015.6,286046994.2,N
1459055035.5,286046994.5,N
1459055055.3,286046990.4,N
1459055075.1,286046995.0,N
1459055095.8,286046995.6,N
1459055115.7,286046995.0,N
1459055135.5,286046996.2,N
1459055155.3,286046993.3,N
1459055175.2,286046991.3,Y
1459055195.0,286046994.9,P
1459055195.9,286046994.9,P
1459055215.7,286046998.5,N
1459055235.6,286047001.0,N
1459055255.4,286047001.5,N
1459055275.2,286046998.6,N
1459055295.1,286047002.3,N
1459055296.0,286047002.3,N
1459055315.8,286047001.7,N
1459055335.6,286047002.0,N
1459055355.5,286047004.4,N
1459055375.3,286047000.4,N
1459055395.1,286047002.7,N
1459055415.9,286047000.4,N
1459055435.7,286047000.2,N
1459055455.5,286047000.3,N
1459055475.3,286047000.3,N
1459055495.2,286046998.3,N
1459055515.0,286046999.2,N
1459055515.9,286046999.2,N
1459055535.7,286046996.8,N
1459055555.6,286046998.3,N
1459055575.4,286046998.1,N
1459055595.2,286046998.5,N
1459055615.1,286047001.1,N
1459055616.0,286047001.1,N
1459055635.8,286046999.3,N
1459055655.6,286047001.1,N
1459055675.5,286047001.9,N
1459055695.3,286046999.8,N
1459055715.1,286046999.2,N
1459055735.9,286046999.1,N
1459055755.7,286046996.8,N
1459055775.5,286046995.3,N
1459055795.4,286046995.3,N
1459055815.2,286046995.2,N
1459055835.0,286046993.6,N
1459055835.9,286046993.6,N
1459055855.7,286046994.6,N
1459055875.6,286046996.9,N
1459055895.4,286047002.5,N
1459055915.2,286047001.3,N
1459055935.1,286047002.8,N
1459055936.0,286047002.8,N
1459055955.8,286047003.8,N
1459055975.6,286047009.2,Y
1459055995.5,286047009.6,P
1459056015.3,286047012.1,N
1459056035.1,286047009.4,N
1459056055.9,286047011.4,N
1459056075.7,286047012.4,N
1459056095.5,286047011.5,N
1459056115.4,286047013.7,Y
1459056135.2,286047004.2,P
1459056155.0,286047003.2,N
1459056155.9,286047003.2,N
1459056175.8,286047003.7,N
1459056195.6,286047004.7,N
1459056215.4,286047005.3,N
1459056235.3,286047001.5,N
1459056255.1,286047001.4,N
1459056256.0,286047001.4,N
1459056275.8,286047001.7,N
1459056295.7,286047002.5,N
1459056315.5,286047000.9,N
1459056335.3,286047000.7,N
1459056355.1,286046998.4,N
1459056375.9,286046994.2,N
1459056395.7,286046995.6,N
1459056415.5,286046993.7,N
1459056435.4,286046990.6,N
1459056455.2,286046989.8,N
1459056475.0,286046985.5,N
1459056475.9,286046985.5,N
1459056495.8,286046985.5,N
1459056515.6,286046985.7,N
1459056535.4,286046989.9,N
1459056555.3,286046989.2,N
1459056575.1,286046987.3,N
1459056576.0,286046987.3,N
1459056595.8,286046991.0,N
1459056615.7,286046989.9,N
1459056635.5,286046987.9,N
1459056655.3,286046990.0,N
1459056675.1,286046987.1,N
1459056695.9,286046991.1,N
1459056715.7,286046991.3,N
1459056735.5,286046990.4,N
1459056755.4,286046990.5,N
1459056775.2,286046991.5,N
1459056795.0,286046989.2,N
1459056795.9,286046989.2,N
1459056815.8,286046985.8,N
1459056835.6,286046989.3,N
1459056855.4,286046991.5,N
1459056875.3,286046990.2,N
1459056895.1,286046990.9,Y
1459056915.8,286047000.9,P
1459056935.7,286046996.7,N
1459056955.5,286046996.8,N
1459056975.3,286046999.6,N
1459056995.2,286047000.9,N
1459057015.9,286047004.1,N
1459057035.7,286047003.8,N
1459057055.6,286047002.3,N
1459057075.4,286046999.8,N
1459057095.2,286047002.1,N
1459057115.0,286046999.8,N
1459057115.9,286046999.8,N
1459057135.8,286047005.9,N
1459057155.6,286047007.6,N
1459057175.4,286047007.4,N
1459057195.3,286047007.3,N
1459057215.1,286047008.6,N
1459057235.8,286047008.6,N
1459057255.7,286047010.2,N
1459057275.5,286047010.3,N
1459057295.3,286047012.1,N
1459057315.2,286047011.7,N
1459057335.9,286047013.2,N
1459057355.7,286047012.7,N
1459057375.5,286047014.4,N
1459057395.4,286047018.7,Y
1459057415.2,286047014.9,P
1459057435.1,286047013.3,N
1459057436.0,286047013.3,P
1459057455.8,286047009.9,N
1459057475.6,286047007.9,N
1459057495.4,286047010.1,N
1459057515.3,286047009.5,N
1459057535.1,286047008.9,N
1459057555.9,286047009.1,Y
1459057575.7,286046997.3,P
1459057595.5,286046995.4,N
1459057615.3,286046996.0,N
1459057635.2,286046995.6,N
1459057655.0,286046994.0,N
1459057655.9,286046994.0,N
1459057675.7,286046994.7,N
1459057695.6,286046992.1,N
1459057715.4,286046994.0,N
1459057735.2,286046992.1,N
1459057755.1,286046992.7,N
1459057756.0,286046992.7,N
1459057775.8,286046990.2,N
1459057795.6,286046991.8,N
1459057815.5,286046994.6,N
1459057835.3,286046990.1,N
1459057855.1,286046988.8,N
1459057875.9,286046989.6,N
1459057895.7,286046991.5,N
1459057915.5,286046988.7,N
1459057935.3,286046991.4,N
1459057955.2,286046991.1,N
1459057975.0,286046990.6,N
1459057975.9,286046990.6,N
1459057995.7,286046990.2,N
1459058015.6,286046991.8,N
1459058035.4,286046990.2,N
1459058055.2,286046991.3,N
1459058075.1,286046989.0,N
1459058076.0,286046989.0,N
1459058095.8,286046988.5,Y
1459058115.6,286046998.9,P
1459058135.5,286047000.4,N
1459058155.3,286046998.1,N
1459058175.1,286046998.8,N
1459058195.9,286046999.2,N
1459058215.7,286046999.6,N
1459058235.5,286046997.4,N
1459058255.4,286046997.0,N
1459058275.2,286046999.5,N
1459058295.0,286046999.3,N
1459058295.9,286046999.3,N
1459058315.8,286046999.6,N
1459058335.6,286046999.3,N
1459058355.4,286047001.5,N
1459058375.2,286047002.3,N
1459058395.1,286047001.5,N
1459058396.0,286047001.5,N
